Wind_Speed
25 25 25 25 26 26 25 24 23 24 25 25 25 25 25 26 26 26 26 27 28 28 29 29 29 29 29 28 28 27 27 27 26 26 25 25 24 24 24 24 25 26 26 25 24 24 25 25 25 24 24 24 25 25 24 23 23 22 21 21 22 23 22 23 24 24 25 28 30 31 34 37 40 41 40 40 40 41 42 42 42 40 40 39 37
23 22 23 23 23 24 24 23 23 24 26 27 27 27 26 27 27 27 26 26 25 26 27 28 28 28 28 27 27 27 26 26 26 26 26 26 25 25 25 25 26 26 26 26 25 24 25 25 26 25 24 23 24 25 25 24 24 24 22 21 22 23 24 24 24 24 24 25 29 31 32 33 37 41 41 41 41 42 44 44 44 43 42 41 40
21 21 21 21 21 21 22 22 23 24 26 28 29 29 28 28 28 27 26 26 25 25 25 26 26 26 26 26 26 26 26 25 26 26 26 26 26 26 26 26 26 27 27 26 25 25 25 25 26 26 25 24 24 25 25 26 26 25 24 23 23 23 24 23 24 24 22 20 23 29 32 31 31 37 41 43 43 43 44 45 45 46 45 43 42
22 21 21 21 20 20 21 21 23 25 26 28 30 31 29 27 27 26 25 25 25 25 25 25 25 25 24 24 24 25 25 25 26 26 26 26 26 26 26 26 26 27 27 27 26 25 25 25 25 26 26 25 24 24 26 27 27 28 27 25 24 24 23 23 22 21 19 19 19 21 27 29 29 32 38 43 45 45 45 46 46 47 46 44 43
25 24 24 22 21 20 20 21 22 24 27 29 31 32 30 27 26 25 25 24 23 23 24 24 25 24 23 23 23 23 24 25 26 26 26 26 26 26 26 26 26 27 27 27 26 26 25 25 25 26 26 25 25 25 26 26 27 29 30 28 26 25 24 23 22 21 19 19 20 18 20 24 27 30 33 38 45 47 47 46 48 48 47 45 44
27 26 25 24 22 21 21 21 22 24 27 30 32 32 30 27 26 26 24 23 22 22 22 23 23 22 21 22 22 23 24 25 26 26 26 26 26 26 26 26 26 27 27 27 26 25 25 25 25 26 26 25 24 25 26 26 26 28 30 30 28 26 25 24 23 22 21 20 21 20 20 20 23 25 28 31 38 45 48 49 49 50 49 47 45
27 26 25 24 23 23 22 22 23 25 28 31 32 31 29 28 27 26 24 22 21 21 22 22 22 20 20 21 22 23 24 24 25 26 25 25 25 26 26 26 27 27 27 27 26 25 24 24 25 26 26 25 25 24 25 25 25 27 29 31 31 29 27 26 25 25 25 24 21 21 21 21 21 22 24 27 29 36 44 49 50 51 50 48 46
26 27 26 24 24 25 24 24 25 26 28 31 31 29 28 27 26 26 24 22 21 21 21 22 21 20 20 21 22 22 23 24 24 24 24 24 24 25 25 26 26 27 27 27 26 24 23 23 24 26 26 25 25 24 24 24 25 26 28 30 31 31 30 30 29 28 28 28 26 24 23 22 22 22 23 24 24 26 32 39 46 50 50 49 47
26 28 27 25 26 28 27 27 27 27 29 30 29 27 27 26 25 24 22 20 20 21 21 21 21 20 20 21 21 22 22 23 23 23 23 23 24 24 25 25 25 26 26 25 24 23 23 23 24 25 26 25 25 25 24 24 24 25 26 28 29 30 30 31 32 32 31 31 30 29 27 25 24 24 23 23 23 22 24 27 33 41 45 46 46
27 28 28 27 29 30 29 27 27 27 27 28 28 26 26 25 24 22 20 19 19 20 20 21 20 20 21 21 21 21 22 22 22 22 22 23 23 24 24 24 24 24 24 23 22 21 21 22 23 24 25 25 25 24 24 24 24 25 25 27 28 28 28 29 31 32 32 32 32 31 30 28 25 24 24 24 23 22 22 23 25 29 35 39 41
28 28 26 27 28 27 24 23 23 23 25 26 27 27 26 25 23 21 20 18 18 18 19 20 20 20 20 21 21 21 21 21 21 21 21 22 23 23 24 24 24 23 22 21 21 20 20 21 22 23 24 24 24 24 24 24 24 24 25 26 27 27 27 27 28 30 30 31 32 32 31 30 28 26 25 25 25 24 23 24 25 27 30 33 36
24 22 20 22 22 20 18 18 19 21 24 27 28 28 26 23 22 21 19 18 17 17 18 19 20 20 20 20 20 20 20 20 20 20 21 21 22 23 23 24 23 22 21 21 20 20 19 20 21 22 23 24 24 23 23 24 24 24 24 25 25 26 26 26 26 27 28 28 29 30 30 30 29 28 26 26 27 27 26 26 28 29 30 32 34
18 16 15 17 17 16 15 16 18 22 25 27 28 27 24 20 21 21 19 18 18 18 19 20 20 20 20 20 20 19 19 19 19 20 20 21 21 22 22 23 23 22 22 21 20 20 20 20 20 21 22 23 23 23 22 22 23 23 23 24 24 25 25 25 25 25 26 27 27 27 28 29 29 28 28 28 28 28 29 29 30 32 33 34 34
15 14 14 14 15 16 17 18 20 23 26 27 27 26 22 19 21 21 19 18 18 19 20 20 21 21 21 20 20 19 19 18 18 19 19 20 20 21 21 22 22 22 22 21 21 21 20 20 20 21 22 22 22 22 22 21 21 22 22 22 23 23 23 24 24 24 24 25 26 26 26 27 28 28 28 27 28 28 29 29 30 32 33 35 36
12 13 14 15 17 19 19 19 21 23 26 27 27 25 22 20 21 21 20 19 19 20 20 21 22 22 22 21 21 21 20 20 19 19 19 19 20 20 21 21 22 22 22 21 21 21 21 21 21 21 22 22 22 22 21 21 21 21 21 21 21 21 22 22 23 23 23 24 24 25 25 26 26 27 27 26 26 27 27 28 29 30 31 32 34
12 14 16 18 21 22 21 21 22 25 27 27 27 25 22 22 22 22 22 20 19 20 20 21 22 22 22 22 22 22 22 22 21 21 21 20 21 21 21 21 22 22 21 21 20 20 21 21 21 21 21 22 22 22 21 21 21 21 21 20 20 21 21 22 22 23 23 23 23 24 25 25 25 26 26 26 26 26 26 27 27 28 28 29 30
15 17 19 21 24 24 24 24 24 26 27 26 24 22 21 21 22 23 22 21 20 19 19 19 21 21 22 22 22 23 23 23 23 23 23 22 22 22 22 22 22 22 22 21 20 19 20 20 21 21 21 22 22 22 22 22 22 22 21 21 21 21 21 21 22 23 23 24 24 24 25 25 26 27 27 27 27 27 27 27 27 28 28 28 28
19 20 23 25 26 27 27 26 24 26 27 26 22 19 19 19 20 21 21 20 20 19 19 19 20 20 21 22 22 22 23 23 22 22 22 23 23 23 23 23 23 24 23 22 21 20 20 20 20 21 21 21 22 22 23 23 23 23 23 23 22 22 22 22 23 23 24 24 25 26 26 26 27 28 28 29 29 29 29 29 29 29 28 28 28
22 23 25 27 28 30 30 28 26 27 29 29 25 21 19 18 18 19 19 20 21 21 21 21 21 20 20 21 22 23 22 21 20 20 21 21 22 21 21 21 22 23 24 24 23 23 22 21 20 21 21 22 22 22 23 24 24 24 24 24 24 25 25 25 25 25 25 26 27 27 28 28 29 29 30 30 30 31 31 31 31 31 30 30 29
23 25 27 27 28 30 30 30 29 30 31 31 28 24 22 20 19 20 20 21 22 23 23 23 22 21 21 21 22 23 23 21 20 20 20 21 21 21 21 20 19 20 21 22 23 23 24 23 22 22 22 23 23 23 23 24 25 25 26 26 27 27 27 27 27 27 28 28 28 29 29 30 30 31 31 31 32 32 33 34 34 34 33 33 33
25 25 27 29 29 29 28 29 30 31 32 31 29 28 27 23 21 22 23 24 24 25 25 25 24 23 23 22 22 23 24 23 22 22 21 21 21 21 22 20 18 17 17 17 19 21 23 23 24 24 24 24 24 25 25 25 26 26 27 28 29 29 29 30 30 30 30 30 31 31 31 31 32 32 33 33 33 34 34 35 35 36 36 36 36
28 27 28 29 30 30 29 29 30 32 32 31 31 31 30 26 24 24 25 27 27 27 27 26 26 26 26 25 24 25 26 25 25 25 24 23 23 22 22 22 21 19 18 17 18 19 21 22 22 23 23 24 25 25 26 26 27 27 28 29 30 31 32 32 33 33 33 33 33 34 34 34 34 34 35 35 35 36 36 37 37 37 38 38 38
31 31 31 31 32 32 31 31 31 32 32 31 32 33 32 31 31 29 28 29 30 29 28 27 27 27 28 28 27 27 27 27 27 27 26 26 25 24 23 23 23 23 23 22 21 20 20 21 22 23 23 23 24 25 26 26 27 28 29 30 31 32 33 34 35 35 36 36 36 36 36 36 37 37 37 37 38 38 39 39 40 40 40 40 40
32 32 32 33 34 34 33 33 33 33 33 33 34 35 35 35 35 33 32 32 32 32 31 31 31 30 30 30 30 30 30 29 29 29 28 28 28 27 26 24 24 23 23 24 24 22 21 22 23 24 24 25 26 26 26 27 28 28 29 29 30 31 33 34 35 35 36 37 37 37 38 38 38 38 39 39 39 39 39 40 41 42 42 43 43
33 33 33 34 35 36 36 35 33 33 34 35 36 36 37 37 36 35 35 35 35 35 35 35 35 33 32 33 33 34 33 32 32 32 31 30 30 29 28 28 27 25 24 25 26 26 26 26 26 26 26 27 28 29 30 29 30 30 29 30 30 32 33 34 34 35 36 36 37 38 38 38 38 38 38 39 39 39 39 39 39 40 41 42 43
37 36 35 35 36 36 37 37 35 34 34 35 37 38 39 40 39 38 37 36 37 38 38 38 37 35 34 36 38 38 37 37 36 36 35 34 33 31 30 30 30 29 29 30 30 29 29 30 31 30 30 29 29 30 31 31 32 32 32 32 32 33 34 34 34 35 35 35 36 37 37 37 37 37 37 37 37 37 37 37 37 37 39 40 41
43 41 38 38 38 38 39 38 37 36 36 37 38 40 42 42 42 40 39 39 39 40 41 41 40 38 38 39 40 40 40 40 39 38 38 37 36 35 33 33 33 33 35 36 35 32 31 31 33 35 35 34 33 33 34 33 33 34 35 35 35 35 36 36 36 35 35 35 35 36 37 37 37 36 36 35 34 33 32 32 33 35 36 37 38
49 46 44 42 42 42 42 41 40 39 39 39 40 41 42 43 43 42 41 41 41 42 43 44 44 44 43 42 42 41 41 41 40 40 40 40 40 38 37 36 36 37 38 39 38 38 37 35 35 36 36 34 34 35 38 37 36 35 37 38 39 38 38 38 37 37 36 36 36 36 37 37 37 36 35 34 33 31 31 31 31 33 34 35 36
50 49 49 48 47 48 48 47 46 44 44 44 44 45 45 45 45 44 44 42 41 42 44 45 46 47 47 46 44 43 42 42 42 41 42 42 43 42 41 40 40 40 41 42 41 41 42 40 39 39 39 39 39 39 39 40 40 40 40 41 41 40 39 39 39 38 38 38 37 37 37 38 38 37 36 35 34 33 33 32 32 33 34 34 34
51 50 50 50 50 51 52 51 50 50 49 48 49 50 50 49 49 49 48 48 47 46 46 46 47 47 48 48 48 47 47 46 45 45 45 45 46 46 46 45 44 44 44 44 43 43 44 43 43 42 41 41 42 41 40 40 42 43 42 42 43 43 41 40 40 40 40 40 40 39 39 39 39 40 39 39 38 36 35 35 34 34 35 35 35
49 50 51 51 52 52 53 53 53 53 53 53 53 53 54 53 53 53 53 53 53 53 52 52 51 52 52 52 52 52 52 52 51 50 49 49 49 49 49 49 49 48 47 46 46 46 48 48 47 45 44 42 41 41 41 40 40 42 43 44 45 44 43 41 40 40 40 41 42 42 42 41 41 41 41 42 42 41 39 38 37 37 37 37 37
47 49 50 52 53 54 55 55 56 56 56 56 56 56 56 56 56 56 56 56 56 56 57 57 57 57 57 57 56 56 56 55 55 54 53 52 52 52 52 52 52 52 52 51 50 50 51 49 47 46 47 48 48 46 45 44 44 43 43 44 45 45 44 43 42 41 41 41 42 43 44 45 45 44 44 44 45 45 44 42 41 40 40 40 41
48 47 48 50 52 53 55 56 56 57 57 57 57 57 58 57 57 57 57 58 59 59 59 59 60 60 60 60 60 59 59 58 57 56 55 55 55 55 55 55 55 56 56 56 54 54 54 52 50 49 49 50 52 53 52 51 49 45 43 45 45 44 45 46 46 46 45 43 42 42 44 47 48 47 47 47 47 48 47 46 45 44 44 44 44
49 49 49 49 50 51 52 53 54 55 56 57 57 57 57 57 58 58 58 58 58 59 60 60 60 60 60 60 60 60 59 59 58 58 57 58 58 58 58 58 58 58 58 58 57 57 56 56 55 54 51 49 49 50 51 52 51 48 45 43 43 44 47 49 50 50 49 48 46 44 45 47 49 50 50 51 51 51 50 50 49 47 47 47 47
52 52 51 51 50 51 51 52 53 54 54 56 56 57 57 57 58 58 58 59 59 59 59 60 60 60 60 60 60 60 60 59 60 60 60 60 60 60 60 59 59 59 59 58 58 57 57 57 56 54 53 52 49 46 46 47 47 47 46 45 47 49 51 50 51 51 50 50 50 49 47 47 49 52 54 54 54 54 53 52 52 50 50 50 51
54 54 53 53 52 52 52 52 53 53 54 55 55 56 56 56 57 57 58 59 59 58 59 59 60 60 60 60 60 60 60 60 60 60 60 61 61 60 60 60 60 60 59 58 58 57 57 57 57 55 53 53 53 52 52 51 48 47 46 47 48 50 50 50 51 52 52 51 52 52 52 50 50 52 54 54 54 55 55 54 54 53 53 54 55
55 54 54 53 53 53 53 53 52 53 53 54 54 55 55 55 55 55 56 56 57 57 57 58 58 58 58 58 59 59 59 60 60 60 60 60 60 60 60 60 61 60 60 60 59 59 59 59 57 56 54 53 54 56 57 57 56 53 50 49 49 50 51 51 52 53 54 54 54 54 55 55 54 54 54 54 54 54 54 54 55 55 56 57 58
53 53 53 53 53 53 53 53 53 52 53 53 54 54 54 54 54 54 54 54 55 55 56 56 56 57 57 57 58 58 59 59 59 59 59 59 59 58 58 59 59 59 59 59 59 59 60 59 57 56 55 54 54 54 55 56 56 54 52 50 50 51 52 52 51 52 53 55 55 55 56 57 57 58 58 58 58 57 56 55 56 57 58 59 60
52 52 52 53 53 54 54 54 54 53 53 53 54 53 53 53 54 54 54 54 54 55 56 55 55 56 57 58 58 58 58 58 58 58 58 58 56 55 55 55 55 54 54 55 55 55 56 56 56 55 55 54 54 54 53 53 53 52 51 50 49 49 50 51 50 50 50 51 52 53 54 56 57 59 60 61 61 60 59 57 57 58 60 61 62
51 51 51 52 52 52 53 53 53 53 53 53 53 54 54 54 54 54 54 55 55 56 56 56 56 56 57 58 58 58 57 57 57 57 57 56 54 54 53 53 52 51 50 51 53 54 54 54 55 54 53 52 51 52 52 52 51 50 48 46 45 46 47 48 48 48 48 47 48 49 50 52 54 55 57 58 60 60 59 58 58 60 61 63 64
50 50 50 50 50 50 50 51 51 52 52 52 52 52 52 52 52 53 53 55 56 56 56 56 56 56 57 58 58 57 57 56 56 56 55 55 54 54 53 52 51 50 49 50 51 51 51 51 50 48 47 47 48 48 48 47 43 40 37 36 37 40 43 45 46 47 48 49 49 49 49 50 51 51 52 54 55 57 58 58 60 62 63 65 68
48 48 49 50 49 50 50 50 51 51 51 51 51 51 50 50 50 50 51 52 53 54 54 54 54 54 55 56 57 57 56 56 56 56 55 55 55 54 53 53 52 51 50 50 49 48 47 46 43 41 39 39 40 41 42 40 37 33 32 32 33 36 39 41 43 45 46 48 50 51 52 52 53 52 53 53 55 57 59 60 61 63 64 67 69
50 51 52 52 51 50 50 50 50 51 51 51 51 51 51 51 50 49 50 51 52 52 52 52 52 53 54 55 56 56 56 55 55 55 55 55 55 55 54 54 53 52 50 48 47 46 44 42 39 38 37 37 37 38 39 40 40 39 39 39 38 37 37 37 38 41 44 45 47 49 51 53 55 55 56 56 57 59 59 60 61 62 64 66 67
53 53 54 54 53 52 52 52 52 52 53 54 54 54 53 51 51 51 52 52 53 54 54 54 54 54 55 56 56 56 56 56 55 55 55 55 55 55 55 55 54 51 47 45 44 42 39 36 36 38 39 41 43 45 46 46 47 47 47 46 45 45 44 43 41 41 42 44 46 48 50 52 53 54 55 56 57 58 59 60 62 64 65 67 68
55 55 55 56 55 54 54 54 54 55 56 57 57 57 55 53 54 55 55 55 56 57 57 57 58 58 58 58 58 58 57 57 57 56 56 56 55 54 53 52 49 45 41 39 38 35 34 33 34 35 36 37 40 42 45 47 47 47 47 47 47 48 49 50 50 48 47 47 48 50 51 52 53 54 56 57 58 59 61 64 65 67 68 68 68
58 59 60 60 59 57 56 55 55 57 58 59 60 59 58 57 58 58 58 58 59 60 60 59 59 59 58 57 56 56 55 55 54 54 53 53 52 50 46 43 41 38 35 34 34 34 33 34 34 34 34 35 36 37 40 41 42 42 43 43 44 45 46 49 51 52 52 51 52 53 54 55 56 57 58 60 61 63 65 66 66 67 67 68 69
60 61 62 63 62 61 60 59 58 59 60 61 60 60 60 60 59 59 58 58 58 58 57 56 55 53 50 48 47 47 47 47 47 46 45 43 41 37 34 33 33 33 33 36 37 36 35 34 35 36 37 37 37 37 36 37 38 39 40 41 42 43 44 45 47 49 51 52 54 56 57 57 58 59 60 62 63 64 64 64 65 67 68 70 70
60 60 61 62 62 61 60 60 59 59 60 60 59 58 58 57 55 54 53 53 53 51 50 48 45 42 39 37 37 37 37 37 36 35 34 31 28 26 26 27 29 30 34 39 40 36 35 36 37 37 36 35 35 35 36 38 40 42 43 44 44 44 45 46 48 50 52 53 54 55 56 57 58 59 61 62 63 64 65 67 68 70 69 68 65
58 58 59 59 59 58 58 57 56 55 54 53 51 50 49 47 45 44 44 44 42 41 40 37 34 32 31 30 29 29 29 28 27 27 26 26 27 27 27 27 28 30 33 37 38 36 36 37 36 36 36 36 37 38 40 42 44 45 45 46 46 45 46 47 49 51 52 52 53 54 56 57 59 60 62 63 64 65 66 66 66 65 62 59 55
54 54 54 54 54 54 52 51 48 46 43 41 40 38 36 34 33 33 35 35 33 32 30 28 27 27 27 26 26 25 24 24 24 24 24 25 28 29 28 28 30 31 32 35 36 36 36 36 36 36 36 36 37 38 40 41 42 44 44 45 45 45 46 48 49 51 52 53 54 56 57 58 60 60 61 62 62 62 61 60 59 57 55 52 49
48 48 49 48 47 46 44 41 37 34 32 31 30 28 25 24 26 28 29 28 27 26 24 24 25 25 25 24 23 23 22 22 23 23 23 23 25 27 28 27 27 28 31 34 35 34 33 33 33 32 32 33 35 37 38 39 40 41 41 42 44 45 46 48 49 50 52 54 55 56 57 57 57 57 57 57 57 58 57 56 54 52 50 47 45
Wind_Direction
254 250 247 248 251 254 256 256 256 257 258 258 257 256 256 256 255 252 249 247 245 245 246 246 247 249 250 252 253 254 256 257 257 258 258 258 258 258 258 259 261 262 263 263 263 263 263 262 262 260 258 255 254 254 251 250 252 253 251 251 251 253 253 252 249 248 246 241 236 235 237 237 235 232 228 226 227 229 232 235 237 238 239 240 241
254 249 245 247 250 253 255 255 256 257 259 259 259 258 257 258 258 257 256 254 251 250 248 248 248 248 249 250 252 252 253 254 256 257 257 258 258 258 258 259 261 262 263 264 264 263 262 261 262 261 259 257 256 254 251 248 250 252 252 251 251 251 252 254 254 253 253 248 243 241 242 240 236 233 231 229 228 229 231 233 236 237 238 239 240
251 249 248 249 252 255 255 255 256 257 259 261 261 260 259 259 260 260 260 259 257 256 254 252 251 250 250 251 252 252 251 252 254 256 257 258 258 258 259 260 261 262 264 265 265 264 262 260 260 260 259 257 255 255 251 247 246 249 249 248 250 251 252 255 257 258 260 256 248 244 244 245 241 234 231 230 231 230 230 232 234 237 238 239 240
249 250 251 253 255 256 256 257 258 260 262 264 264 264 262 263 263 263 263 263 262 262 261 260 258 255 254 254 254 253 253 253 255 256 257 258 258 259 259 260 261 263 264 266 266 265 263 260 259 259 258 256 254 254 251 247 245 246 247 247 249 250 252 253 254 256 260 258 254 247 242 243 245 242 236 232 232 232 231 231 233 235 237 238 240
246 248 251 254 255 255 257 260 263 265 267 267 266 266 266 267 269 268 267 268 267 266 265 263 261 260 258 257 255 255 256 257 258 259 260 260 260 260 261 262 262 263 264 265 266 265 263 261 259 258 257 256 254 253 253 250 246 245 247 247 248 250 250 250 251 254 259 259 257 252 245 242 242 244 244 240 236 232 231 230 231 233 235 236 239
245 248 253 258 260 260 261 264 269 270 269 268 267 267 269 272 272 271 271 271 269 267 264 262 261 260 259 258 257 257 258 258 260 262 263 264 264 264 265 265 264 264 264 264 264 264 262 260 259 258 257 255 253 251 252 252 250 248 247 247 248 250 249 247 247 250 254 256 255 251 248 247 244 242 243 244 242 237 234 231 231 232 233 234 236
247 250 255 261 266 266 266 271 273 271 269 267 267 269 272 274 273 272 270 268 265 262 261 260 260 260 259 258 258 259 259 259 260 262 264 265 266 266 266 266 265 264 264 263 263 261 260 259 258 258 258 256 253 251 250 251 251 251 250 249 249 249 251 250 248 248 250 251 253 251 249 250 249 245 242 243 245 243 239 236 233 232 232 232 233
249 252 254 261 269 268 269 273 272 268 265 265 268 271 273 273 271 270 267 264 261 259 259 259 260 260 260 260 260 261 262 262 262 263 265 266 267 266 266 266 266 265 264 263 262 260 257 255 255 256 257 256 254 251 249 249 250 250 252 253 252 251 251 251 250 250 251 252 253 254 256 256 252 248 245 243 244 245 244 242 238 235 234 233 233
253 254 257 265 270 268 267 268 265 261 261 263 266 269 269 268 267 265 263 259 257 256 256 258 260 261 261 261 262 263 264 265 265 266 268 268 268 267 266 266 265 264 263 262 261 259 256 253 252 253 255 255 254 252 250 248 248 248 249 252 254 253 251 250 250 250 251 253 253 254 257 260 256 250 244 239 240 243 245 247 244 238 236 235 235
262 263 265 265 263 263 263 262 258 256 257 260 263 263 262 263 261 259 257 254 252 252 253 256 258 260 261 262 263 264 265 266 267 268 269 270 270 269 267 265 263 261 261 260 259 257 255 252 251 251 253 254 253 252 251 249 248 248 248 250 252 253 252 250 250 250 250 251 252 253 255 257 256 253 248 242 240 242 243 246 246 242 239 238 239
268 267 266 261 258 258 258 257 256 256 256 256 257 258 258 257 255 254 253 251 250 251 253 255 257 259 261 262 263 264 265 267 268 269 270 271 271 270 268 265 261 258 257 257 257 256 253 251 250 250 251 252 252 251 251 250 249 248 248 249 251 253 253 251 250 250 250 250 250 251 252 253 253 252 251 248 247 247 245 245 246 245 243 242 243
265 265 262 258 256 253 251 253 256 254 252 250 250 253 255 255 254 254 253 253 252 252 254 256 258 259 261 262 263 264 264 266 267 268 269 270 271 271 271 268 264 259 255 254 254 253 251 250 249 250 251 252 252 251 250 249 249 249 249 249 250 252 253 253 251 251 251 251 250 250 250 251 251 251 250 250 250 249 248 247 247 247 246 246 247
267 268 264 260 255 245 239 243 250 250 248 247 248 251 251 250 253 256 257 258 257 256 256 257 259 260 261 263 264 265 264 264 265 266 267 268 270 272 273 273 271 266 261 256 254 252 250 248 248 250 252 253 254 253 251 249 249 249 249 249 250 250 252 253 253 251 251 251 251 251 251 251 251 251 250 249 249 250 249 248 248 248 248 250 251
273 273 267 260 250 241 237 238 244 247 248 248 250 252 250 247 252 257 261 263 263 261 259 258 260 261 263 265 267 268 267 266 265 265 267 268 270 273 275 276 276 275 271 266 261 257 254 250 247 246 248 251 254 254 253 251 249 249 248 249 249 250 250 252 253 252 250 251 251 251 251 251 252 252 252 250 249 249 249 248 248 248 248 249 252
273 266 262 257 246 242 243 242 244 247 248 248 250 253 253 251 254 260 264 267 268 267 264 262 262 263 265 267 268 269 270 269 267 266 266 267 268 271 275 277 278 278 278 276 273 268 264 259 253 249 247 248 250 253 254 254 252 250 248 247 247 248 248 249 251 252 251 250 250 250 250 250 251 252 253 252 251 249 248 248 248 248 248 248 249
264 255 252 251 249 251 253 250 247 247 247 247 248 253 256 255 257 261 265 269 271 270 268 267 266 266 266 268 269 270 271 271 271 269 267 267 267 268 270 274 276 277 278 279 279 278 275 271 265 259 253 250 249 250 252 253 253 252 251 249 248 247 247 247 247 250 252 252 251 251 251 251 251 252 253 253 253 252 251 250 249 249 250 250 249
248 247 247 246 246 250 254 250 246 245 247 249 250 254 258 259 260 262 264 267 269 269 268 267 267 267 268 269 271 274 275 276 276 276 274 272 270 269 269 271 274 276 277 277 278 279 279 278 274 269 263 257 254 252 252 252 252 251 250 249 248 247 246 245 246 246 248 250 252 251 251 251 252 252 252 253 253 254 254 253 252 251 251 251 251
238 237 239 240 240 246 252 250 243 241 243 247 250 253 257 260 261 262 264 268 270 270 268 265 264 265 267 269 271 272 274 275 277 278 279 278 276 274 272 272 273 274 276 277 277 277 278 278 276 273 270 265 260 256 255 254 254 254 252 251 249 248 246 245 245 245 245 247 249 251 251 251 251 252 252 252 253 254 254 254 254 253 252 252 251
246 242 239 236 234 241 251 254 249 244 243 245 248 250 252 253 253 255 258 261 264 266 266 265 264 263 262 264 267 268 268 269 272 275 279 280 280 279 277 275 274 274 274 275 275 275 275 276 276 275 273 270 266 262 259 258 258 258 259 258 257 256 254 253 252 250 250 249 250 251 252 253 254 254 254 254 254 255 255 255 255 255 255 255 254
255 252 250 247 240 240 247 252 253 251 248 246 246 248 249 247 245 246 249 253 257 259 260 262 263 261 257 257 263 269 270 269 271 275 278 280 281 282 280 279 276 275 275 276 276 276 274 274 274 275 274 272 270 267 265 263 262 262 262 263 264 264 264 263 262 261 260 259 258 257 257 258 259 259 259 259 259 258 258 258 258 258 257 257 257
257 254 252 254 254 252 250 251 254 256 254 250 249 250 249 247 248 250 251 253 254 255 256 257 258 256 252 252 256 264 269 270 271 273 276 279 281 280 279 277 276 275 277 280 281 280 279 277 275 275 274 273 272 270 268 267 267 266 265 264 264 265 265 265 265 265 265 265 265 265 265 265 265 265 266 267 267 267 265 264 263 263 262 261 260
258 258 253 252 256 258 256 253 252 254 256 256 255 252 247 249 258 262 260 259 257 256 255 256 256 255 252 250 252 260 268 273 274 275 277 278 280 281 279 275 273 272 275 280 284 284 282 281 280 278 277 276 274 273 272 270 269 268 267 266 265 264 264 265 265 265 266 266 266 267 267 268 268 268 269 269 270 270 270 270 269 268 266 265 264
260 260 257 253 253 255 255 254 252 251 254 257 257 256 256 260 265 265 265 266 263 259 257 255 255 255 254 254 255 261 270 277 278 277 278 278 278 280 280 278 276 274 274 277 280 281 279 279 279 278 277 277 276 276 274 273 271 269 268 267 267 266 265 265 265 266 266 267 267 267 267 268 269 269 270 270 271 271 272 273 273 273 272 270 269
263 261 259 257 255 254 253 254 254 254 255 257 259 262 264 265 265 263 264 266 264 261 259 257 254 252 252 255 258 260 267 275 277 277 277 277 276 276 278 280 280 279 280 280 279 276 275 277 277 275 274 273 273 274 273 272 270 269 269 268 267 266 265 265 265 265 266 266 267 268 268 268 268 269 269 270 270 270 271 271 272 273 274 274 273
267 264 261 259 258 258 257 256 256 255 256 258 261 262 262 262 262 262 263 265 265 263 262 260 258 255 254 256 260 261 264 270 275 275 274 275 275 275 276 278 279 281 282 281 279 276 273 273 275 275 274 273 271 272 271 270 268 267 267 268 268 267 265 265 265 265 266 266 267 267 267 267 267 268 268 268 268 269 269 269 269 270 271 272 273
270 267 264 261 259 259 260 261 259 256 255 256 258 258 259 260 260 261 262 264 265 265 264 263 262 259 256 257 259 262 264 267 271 271 271 273 274 275 275 275 276 277 276 275 276 275 272 272 273 274 274 274 272 272 272 270 269 268 267 266 266 266 265 265 267 268 268 268 268 268 267 266 266 266 266 266 266 266 266 266 266 267 267 268 270
272 268 265 262 260 258 259 260 260 259 256 256 257 259 259 259 259 260 261 262 263 263 262 261 260 258 256 256 257 260 262 265 268 269 271 273 274 275 275 275 273 275 277 277 276 274 272 273 275 275 275 273 273 274 272 271 271 272 271 269 267 265 265 265 267 269 270 271 271 271 269 267 266 264 262 261 260 260 261 263 264 265 266 266 267
270 268 264 262 259 258 259 259 259 258 257 256 257 259 259 258 258 258 259 260 261 261 259 257 257 256 255 255 255 257 259 263 265 268 270 272 273 273 274 274 273 275 278 278 276 275 276 277 277 277 275 272 274 277 274 271 272 274 274 272 269 266 264 263 265 267 269 270 272 272 271 268 265 262 259 256 254 255 258 261 264 265 266 267 268
266 265 263 261 258 258 259 260 259 259 259 257 256 256 257 257 256 256 256 257 258 259 259 257 256 255 255 255 256 257 258 261 263 265 267 269 270 271 272 272 272 274 276 277 277 278 279 278 277 277 275 273 276 278 274 271 272 275 275 273 269 265 262 260 262 264 266 267 269 270 270 269 267 263 259 256 255 257 259 262 265 267 268 269 270
262 262 261 259 258 258 259 259 260 260 260 259 258 256 256 256 256 256 256 256 256 257 258 259 258 258 258 258 259 260 262 264 265 266 267 268 268 269 270 271 272 273 274 276 278 278 277 277 277 278 277 275 275 275 272 270 271 272 273 272 269 265 261 259 259 261 263 265 266 267 267 268 267 265 262 259 258 260 262 264 266 267 269 270 272
262 261 260 258 258 258 259 259 259 260 259 259 259 258 257 257 257 256 256 256 256 257 258 260 261 261 260 261 262 263 266 268 269 270 271 270 269 269 269 270 271 272 273 274 275 276 276 276 276 276 275 274 275 275 273 273 273 272 270 269 268 266 262 260 260 261 263 264 266 267 266 265 265 265 263 262 261 261 263 264 266 267 268 270 272
264 262 261 260 259 259 259 259 260 260 260 260 259 259 259 258 258 257 257 257 258 258 259 260 261 262 263 263 263 264 266 268 270 272 272 272 272 271 270 271 271 271 272 272 273 274 275 276 276 276 274 272 273 274 275 275 277 276 270 265 265 265 264 263 263 263 264 266 267 267 267 265 264 264 263 263 263 262 262 263 265 266 268 269 272
266 265 263 262 261 261 260 260 260 260 260 260 260 260 260 260 260 259 259 259 259 259 260 261 262 263 263 264 264 265 265 266 268 269 270 271 272 272 271 271 271 271 271 272 274 274 275 275 276 276 276 276 274 273 273 274 275 276 272 264 262 264 266 266 267 267 266 266 267 269 268 266 265 264 264 264 264 263 263 263 264 265 267 269 271
266 265 265 264 264 263 263 262 262 262 261 261 261 261 261 261 261 262 262 261 261 261 262 262 262 262 262 262 263 263 264 266 267 268 269 270 271 271 271 271 271 271 271 272 273 274 274 274 274 274 275 276 276 273 271 271 270 271 271 263 260 267 270 268 267 267 266 264 265 268 270 268 266 265 266 266 265 263 263 263 263 264 266 268 271
265 265 265 265 265 264 264 264 264 263 263 262 262 262 261 261 262 262 263 263 263 263 263 263 263 262 262 262 262 262 263 264 266 267 268 270 270 270 271 271 271 271 271 271 272 272 273 272 272 272 270 271 273 273 272 273 271 269 266 261 263 271 273 269 266 265 263 262 262 265 269 270 268 266 266 267 266 264 263 262 262 263 265 267 270
265 265 265 265 264 264 264 264 263 263 263 263 263 262 262 262 262 263 263 264 265 265 265 265 265 265 265 264 264 264 264 264 265 266 267 268 268 269 269 269 270 270 271 271 271 271 271 270 270 271 270 269 270 271 272 274 274 272 268 265 268 274 274 271 268 265 262 262 262 263 266 269 270 267 266 267 267 266 265 263 262 262 264 266 268
264 265 265 265 265 265 264 264 263 263 263 262 262 262 262 262 263 263 263 264 264 265 265 265 265 265 266 266 266 266 266 266 266 265 265 266 266 267 268 268 268 269 269 269 269 269 269 269 270 270 271 270 270 271 271 272 273 273 272 271 272 274 275 274 272 267 264 263 263 264 265 267 268 267 266 267 269 269 267 265 263 261 262 265 267
265 265 266 266 266 265 265 264 264 264 264 264 263 263 263 263 264 264 264 264 264 264 263 263 264 264 264 265 265 265 266 266 266 266 266 266 266 266 267 267 267 267 268 268 269 269 268 269 270 271 272 272 271 271 272 272 272 273 273 272 272 272 272 273 273 271 269 267 266 267 267 267 268 267 266 267 269 271 271 269 265 262 262 264 267
265 265 265 265 266 265 265 265 265 265 266 266 265 265 265 264 264 264 265 265 265 264 264 264 264 264 264 264 265 265 265 265 266 266 266 266 266 266 266 266 265 265 266 267 267 268 269 270 271 272 272 272 273 273 273 273 273 272 270 270 270 270 269 269 271 272 271 269 268 268 269 269 269 268 268 268 269 271 271 269 266 264 264 266 268
263 264 265 265 266 266 266 267 267 267 267 266 266 266 265 265 264 264 265 265 264 264 265 265 265 265 265 265 265 265 266 266 266 266 266 266 267 267 266 266 266 265 265 264 264 265 268 270 271 272 273 273 273 273 273 272 271 268 267 267 268 267 266 266 268 270 270 270 269 269 270 270 270 270 271 271 272 273 272 270 268 267 267 268 270
263 264 264 265 265 266 267 267 267 267 266 266 266 266 265 265 264 264 264 264 264 264 264 264 264 264 265 265 265 265 265 265 264 264 265 265 265 266 266 267 267 266 265 264 265 266 267 269 271 272 273 272 271 270 268 266 264 264 265 268 268 266 265 265 267 268 268 269 270 270 270 269 269 270 271 272 272 273 272 271 270 270 270 272 273
263 263 264 265 266 267 267 268 267 267 266 266 265 265 265 265 264 264 264 263 263 263 263 263 263 263 263 263 263 263 263 262 263 263 263 263 263 263 264 265 265 266 266 266 267 268 268 269 269 268 268 268 268 266 264 260 259 262 269 273 272 270 269 269 269 270 271 270 270 270 269 268 269 270 271 272 272 273 273 273 274 274 274 274 275
264 265 266 267 268 268 268 269 269 268 267 266 266 266 266 266 267 267 266 266 265 265 264 263 263 263 263 262 262 261 261 261 261 261 261 262 262 261 262 263 264 265 266 266 267 268 268 266 264 262 263 264 264 263 263 263 266 272 276 276 274 273 273 273 274 274 274 274 274 273 271 270 270 270 271 273 273 274 275 275 275 275 274 274 275
265 266 266 267 268 269 270 270 270 269 268 268 268 268 268 268 268 269 269 269 269 268 267 266 265 265 264 263 263 262 261 260 260 260 260 261 261 260 260 261 263 264 265 266 267 265 261 259 260 263 265 265 264 263 264 268 272 276 278 278 276 274 274 275 276 276 276 276 275 275 275 274 274 274 274 274 274 274 274 274 274 273 273 274 276
270 270 270 270 270 269 269 268 268 268 269 269 269 270 270 270 270 270 270 271 271 271 270 269 268 268 267 266 265 263 262 261 260 259 259 259 260 260 260 260 262 262 261 261 259 255 252 254 260 263 265 266 266 265 267 270 273 276 277 277 277 275 273 273 272 273 274 274 273 272 273 274 274 275 276 275 275 274 273 273 274 274 275 276 277
270 271 272 272 273 272 271 270 270 270 270 270 270 271 272 272 272 272 272 272 271 271 270 269 269 268 267 266 264 263 262 260 259 258 257 257 258 259 259 259 258 256 255 255 251 246 248 256 262 265 267 268 268 268 269 270 272 274 276 277 277 276 275 273 271 270 272 273 272 271 271 272 273 274 274 273 273 272 273 274 275 275 276 276 277
268 269 270 271 273 274 274 274 274 273 273 272 272 273 273 273 273 272 272 271 269 268 267 267 266 265 264 264 263 262 260 259 257 255 253 253 254 254 253 249 246 245 248 250 247 245 250 259 265 267 268 268 268 269 269 270 273 275 277 277 278 277 276 275 273 273 273 274 273 272 272 272 273 273 273 272 272 273 274 275 276 277 278 279 280
270 270 271 271 272 273 274 274 275 275 275 275 274 274 273 272 271 269 267 266 264 264 263 262 262 261 261 260 260 259 258 255 252 248 245 245 245 244 241 237 233 234 240 242 239 243 253 261 264 265 266 267 269 269 269 272 274 276 277 277 277 276 275 275 275 275 275 274 273 272 273 273 274 274 275 275 276 277 278 279 279 280 281 282 282
272 272 272 273 273 274 274 275 276 276 276 275 274 272 270 268 266 264 262 261 260 260 259 258 257 255 255 256 256 254 250 244 238 234 232 231 229 229 232 235 232 231 234 236 239 246 255 259 260 262 266 269 271 270 270 272 273 273 274 274 273 274 274 275 276 276 275 275 275 275 275 276 277 278 279 280 280 281 281 282 283 283 283 283 282
273 272 273 273 274 275 275 276 276 275 274 271 269 266 264 262 261 259 258 258 258 257 255 253 251 250 251 252 250 244 236 228 223 225 227 226 223 223 227 233 235 236 238 241 245 250 253 256 259 264 268 271 271 271 273 274 275 275 276 275 275 276 277 277 278 278 279 279 279 279 279 280 281 281 282 282 283 284 285 285 285 285 285 285 284
271 271 271 272 272 273 274 274 273 270 266 263 260 259 258 257 256 256 256 257 256 255 252 249 247 247 246 244 239 230 222 219 222 225 226 224 220 220 223 229 234 239 242 244 245 248 252 258 263 267 269 270 272 275 277 279 280 280 281 281 281 282 283 283 283 283 283 284 283 283 284 284 284 284 284 285 286 287 287 287 287 286 287 286 285
Height
5761 5761 5762 5762 5762 5762 5763 5763 5763 5763 5762 5761 5761 5762 5762 5762 5763 5764 5765 5765 5766 5767 5767 5768 5769 5770 5770 5771 5772 5772 5772 5773 5773 5773 5774 5774 5775 5776 5776 5776 5777 5777 5777 5777 5778 5778 5777 5778 5778 5778 5779 5779 5779 5779 5780 5782 5781 5781 5782 5783 5783 5784 5785 5785 5786 5786 5787 5788 5789 5791 5792 5793 5794 5796 5798 5800 5801 5803 5804 5806 5808 5810 5812 5813 5815
5758 5759 5759 5760 5760 5760 5760 5760 5760 5759 5758 5758 5758 5758 5759 5759 5760 5761 5762 5762 5763 5764 5764 5765 5766 5767 5767 5768 5768 5769 5769 5770 5770 5770 5770 5771 5772 5772 5773 5774 5774 5774 5774 5775 5775 5775 5775 5775 5775 5775 5776 5776 5776 5776 5777 5778 5779 5779 5780 5781 5781 5782 5782 5782 5783 5784 5784 5785 5786 5787 5788 5789 5790 5792 5793 5795 5797 5799 5800 5802 5804 5806 5807 5809 5811
5756 5757 5757 5757 5758 5758 5758 5757 5757 5756 5755 5754 5754 5754 5755 5756 5757 5758 5759 5759 5760 5761 5761 5762 5763 5764 5764 5765 5765 5766 5766 5767 5767 5767 5767 5768 5769 5769 5770 5771 5771 5771 5771 5772 5772 5772 5772 5772 5772 5772 5773 5773 5774 5774 5774 5775 5776 5777 5778 5779 5779 5779 5779 5780 5781 5781 5782 5782 5782 5783 5784 5785 5787 5788 5789 5791 5793 5795 5797 5799 5800 5801 5803 5805 5807
5754 5754 5754 5755 5755 5755 5755 5755 5754 5753 5752 5751 5750 5750 5752 5753 5754 5755 5756 5756 5757 5758 5758 5759 5759 5760 5761 5762 5762 5763 5763 5763 5764 5764 5765 5765 5766 5766 5767 5768 5768 5768 5768 5769 5769 5769 5769 5769 5769 5769 5770 5770 5771 5771 5772 5773 5774 5774 5774 5775 5776 5777 5778 5778 5778 5779 5780 5780 5780 5780 5781 5782 5783 5784 5785 5787 5788 5791 5793 5795 5796 5797 5799 5802 5804
5751 5751 5751 5752 5752 5753 5752 5752 5752 5751 5749 5748 5747 5747 5748 5750 5751 5752 5753 5754 5754 5755 5755 5756 5756 5757 5758 5759 5759 5760 5760 5760 5761 5761 5762 5762 5763 5763 5764 5764 5765 5765 5765 5766 5766 5766 5766 5766 5766 5766 5767 5768 5768 5769 5769 5770 5771 5771 5771 5771 5773 5774 5775 5776 5776 5776 5777 5777 5778 5778 5779 5780 5780 5781 5783 5783 5785 5787 5789 5791 5792 5794 5796 5798 5800
5748 5748 5749 5749 5750 5750 5750 5750 5749 5748 5747 5745 5744 5745 5746 5747 5748 5749 5750 5751 5751 5752 5752 5752 5752 5754 5755 5755 5756 5756 5757 5758 5758 5758 5759 5759 5760 5760 5761 5761 5761 5762 5762 5762 5763 5763 5763 5763 5763 5763 5764 5764 5765 5766 5766 5766 5767 5768 5768 5768 5770 5771 5772 5773 5773 5773 5774 5774 5775 5776 5777 5777 5778 5779 5780 5781 5781 5783 5784 5786 5788 5790 5792 5794 5796
5745 5746 5747 5747 5747 5747 5747 5747 5746 5745 5744 5742 5742 5743 5744 5745 5745 5746 5747 5748 5748 5748 5748 5749 5749 5751 5751 5752 5752 5753 5754 5754 5755 5756 5756 5756 5757 5757 5757 5758 5758 5758 5759 5759 5759 5760 5760 5760 5760 5760 5760 5761 5762 5763 5763 5763 5764 5765 5765 5765 5767 5768 5769 5770 5770 5771 5771 5772 5773 5773 5775 5775 5776 5777 5778 5778 5779 5780 5780 5781 5783 5785 5787 5790 5792
5742 5742 5743 5743 5743 5743 5744 5744 5743 5742 5741 5740 5740 5741 5742 5742 5742 5743 5744 5745 5745 5745 5745 5746 5746 5747 5748 5749 5749 5750 5750 5751 5752 5752 5753 5753 5754 5754 5754 5754 5755 5755 5755 5756 5756 5756 5757 5757 5757 5757 5757 5758 5758 5759 5760 5761 5761 5762 5762 5762 5763 5765 5766 5767 5767 5768 5768 5769 5770 5771 5772 5773 5774 5774 5775 5776 5776 5777 5778 5778 5780 5781 5783 5786 5788
5737 5737 5738 5739 5739 5739 5739 5739 5739 5738 5738 5737 5737 5738 5739 5739 5740 5740 5741 5741 5742 5742 5742 5743 5744 5744 5745 5746 5746 5747 5747 5748 5749 5749 5750 5750 5750 5750 5751 5751 5751 5752 5752 5752 5753 5753 5753 5754 5754 5755 5755 5755 5756 5756 5757 5758 5758 5759 5759 5760 5760 5761 5763 5763 5764 5765 5766 5766 5767 5768 5769 5770 5771 5772 5772 5773 5774 5774 5775 5775 5777 5778 5780 5782 5784
5732 5732 5733 5733 5734 5734 5734 5735 5735 5735 5735 5734 5735 5736 5736 5737 5737 5737 5738 5738 5738 5739 5739 5740 5741 5741 5742 5743 5743 5744 5745 5745 5746 5746 5747 5747 5747 5748 5748 5748 5749 5749 5749 5749 5749 5750 5750 5751 5751 5752 5752 5752 5753 5753 5754 5755 5755 5756 5757 5757 5757 5758 5759 5760 5761 5762 5763 5763 5764 5765 5766 5767 5768 5769 5769 5770 5771 5772 5772 5773 5774 5776 5777 5779 5781
5727 5728 5728 5728 5729 5729 5730 5731 5732 5732 5732 5732 5732 5733 5733 5734 5735 5735 5735 5736 5736 5736 5736 5737 5738 5738 5739 5740 5740 5741 5742 5743 5743 5744 5744 5744 5744 5745 5745 5746 5746 5746 5746 5746 5746 5747 5747 5748 5748 5749 5749 5749 5750 5751 5751 5752 5753 5753 5754 5754 5755 5755 5756 5757 5758 5759 5759 5760 5761 5762 5763 5764 5765 5766 5767 5767 5768 5769 5770 5771 5772 5773 5775 5776 5777
5723 5724 5724 5724 5725 5726 5727 5728 5729 5730 5730 5730 5729 5730 5731 5732 5732 5732 5733 5733 5733 5733 5734 5734 5735 5735 5736 5737 5738 5739 5739 5740 5741 5741 5741 5741 5741 5742 5742 5743 5743 5743 5744 5744 5744 5744 5744 5745 5745 5746 5746 5747 5747 5748 5749 5749 5750 5750 5751 5751 5752 5752 5753 5754 5755 5756 5756 5757 5758 5759 5760 5760 5762 5763 5764 5765 5765 5766 5767 5768 5769 5770 5771 5772 5774
5720 5720 5720 5721 5722 5723 5724 5726 5727 5727 5727 5727 5727 5727 5729 5730 5729 5729 5730 5731 5731 5731 5731 5731 5732 5732 5733 5734 5735 5736 5737 5737 5738 5738 5739 5739 5739 5739 5740 5740 5740 5741 5741 5741 5741 5742 5742 5743 5743 5743 5744 5744 5744 5745 5746 5746 5747 5747 5748 5748 5749 5749 5750 5750 5751 5752 5753 5754 5755 5755 5756 5757 5758 5759 5761 5762 5762 5763 5764 5765 5766 5767 5768 5769 5770
5717 5717 5718 5718 5720 5720 5722 5723 5724 5725 5725 5725 5725 5725 5727 5727 5727 5727 5728 5728 5729 5729 5729 5729 5729 5730 5730 5731 5732 5733 5734 5734 5735 5735 5736 5736 5736 5736 5737 5737 5738 5738 5739 5739 5739 5740 5740 5740 5741 5741 5741 5742 5742 5742 5743 5743 5744 5744 5745 5745 5746 5746 5747 5747 5748 5749 5750 5751 5751 5752 5753 5754 5755 5756 5757 5758 5759 5760 5761 5762 5763 5764 5765 5766 5766
5715 5716 5716 5717 5718 5719 5720 5721 5722 5722 5723 5723 5723 5723 5724 5725 5725 5725 5726 5726 5726 5727 5727 5727 5727 5727 5728 5728 5729 5730 5730 5731 5732 5732 5732 5733 5733 5733 5734 5734 5735 5735 5736 5737 5737 5738 5738 5738 5739 5739 5739 5739 5740 5740 5741 5741 5741 5742 5742 5743 5743 5744 5744 5745 5745 5746 5747 5747 5748 5749 5750 5751 5752 5753 5754 5755 5756 5757 5758 5759 5760 5760 5762 5763 5763
5714 5715 5715 5716 5716 5717 5719 5720 5720 5720 5720 5720 5721 5721 5721 5722 5722 5722 5723 5724 5724 5724 5725 5725 5725 5725 5725 5726 5726 5727 5727 5728 5729 5729 5729 5730 5730 5730 5731 5731 5732 5733 5733 5734 5735 5735 5736 5736 5737 5737 5737 5737 5738 5738 5738 5739 5739 5739 5740 5740 5741 5741 5742 5742 5743 5743 5744 5744 5745 5746 5747 5748 5749 5750 5750 5751 5752 5753 5754 5755 5756 5757 5758 5759 5760
5713 5713 5714 5714 5714 5714 5716 5717 5718 5718 5717 5718 5718 5718 5718 5719 5719 5719 5720 5721 5722 5722 5722 5723 5723 5723 5723 5723 5724 5724 5725 5726 5726 5726 5727 5727 5727 5728 5728 5728 5729 5729 5730 5731 5732 5733 5733 5734 5734 5735 5735 5735 5736 5736 5736 5736 5737 5737 5737 5738 5738 5739 5739 5740 5740 5741 5741 5741 5742 5743 5743 5744 5745 5746 5747 5748 5748 5749 5750 5751 5752 5754 5755 5756 5757
5710 5711 5711 5712 5711 5711 5712 5714 5715 5715 5715 5715 5716 5716 5716 5716 5716 5716 5717 5718 5718 5719 5720 5720 5720 5721 5720 5721 5721 5722 5722 5723 5723 5724 5724 5724 5725 5725 5725 5725 5726 5726 5727 5727 5728 5729 5730 5731 5732 5732 5733 5733 5733 5734 5734 5734 5734 5734 5735 5735 5736 5736 5736 5737 5737 5738 5738 5739 5739 5739 5740 5741 5741 5742 5743 5744 5745 5745 5746 5747 5748 5750 5751 5753 5754
5707 5708 5708 5708 5708 5708 5708 5710 5711 5712 5712 5712 5713 5713 5713 5713 5713 5714 5714 5714 5715 5716 5716 5717 5718 5718 5718 5718 5718 5718 5719 5720 5720 5721 5721 5721 5722 5722 5723 5723 5723 5723 5724 5724 5725 5725 5726 5727 5728 5729 5730 5730 5731 5731 5731 5731 5732 5732 5732 5732 5733 5733 5734 5734 5734 5735 5735 5736 5736 5737 5737 5737 5738 5739 5739 5740 5741 5742 5743 5743 5745 5746 5747 5749 5750
5704 5705 5705 5705 5705 5705 5706 5706 5707 5708 5708 5709 5709 5710 5710 5710 5711 5711 5711 5712 5712 5712 5713 5714 5715 5715 5716 5716 5716 5715 5716 5717 5718 5718 5718 5718 5719 5719 5720 5721 5721 5721 5721 5721 5722 5722 5722 5723 5724 5725 5726 5727 5727 5728 5728 5729 5729 5729 5729 5730 5730 5730 5730 5731 5731 5731 5732 5732 5733 5733 5734 5734 5735 5735 5736 5737 5737 5738 5739 5739 5740 5741 5743 5744 5745
5700 5701 5702 5702 5702 5703 5703 5704 5704 5704 5704 5705 5706 5706 5706 5707 5707 5708 5708 5709 5709 5709 5710 5711 5711 5712 5712 5713 5713 5713 5713 5714 5714 5714 5715 5715 5715 5716 5716 5717 5718 5719 5719 5719 5719 5719 5719 5720 5720 5721 5722 5722 5723 5724 5724 5725 5726 5726 5726 5727 5727 5727 5727 5727 5728 5728 5728 5729 5729 5730 5730 5731 5731 5732 5732 5733 5733 5734 5734 5735 5736 5737 5738 5739 5741
5695 5696 5697 5698 5699 5699 5700 5701 5701 5701 5701 5702 5702 5702 5702 5703 5704 5704 5705 5705 5706 5707 5707 5707 5708 5709 5709 5710 5711 5710 5710 5710 5711 5711 5712 5712 5713 5713 5713 5714 5715 5716 5717 5717 5717 5717 5717 5716 5717 5717 5718 5718 5719 5719 5720 5721 5721 5722 5722 5723 5723 5723 5723 5724 5724 5724 5725 5725 5726 5726 5726 5727 5727 5728 5728 5729 5729 5729 5730 5730 5731 5732 5733 5734 5735
5690 5691 5693 5694 5695 5695 5696 5696 5697 5698 5698 5699 5698 5698 5699 5699 5700 5700 5701 5701 5702 5704 5704 5704 5705 5705 5706 5706 5707 5708 5708 5708 5708 5708 5708 5709 5709 5710 5710 5711 5712 5713 5713 5714 5715 5715 5714 5714 5714 5714 5714 5714 5715 5715 5716 5716 5717 5717 5718 5718 5719 5719 5719 5720 5720 5720 5720 5721 5721 5722 5722 5723 5723 5724 5724 5724 5725 5725 5725 5725 5725 5726 5727 5728 5729
5685 5686 5687 5688 5689 5690 5691 5692 5692 5693 5694 5694 5694 5695 5695 5695 5696 5697 5697 5697 5698 5699 5700 5700 5700 5701 5701 5702 5703 5704 5704 5704 5704 5705 5705 5705 5705 5706 5707 5708 5709 5709 5710 5711 5711 5712 5712 5711 5711 5711 5711 5711 5711 5711 5712 5712 5712 5712 5713 5714 5714 5715 5715 5715 5716 5716 5716 5716 5716 5717 5717 5718 5718 5719 5719 5719 5720 5720 5721 5721 5721 5721 5721 5721 5722
5680 5681 5682 5683 5683 5684 5685 5686 5687 5688 5689 5689 5690 5691 5691 5691 5692 5692 5692 5693 5694 5694 5695 5696 5696 5696 5697 5698 5699 5699 5700 5700 5700 5700 5701 5701 5702 5703 5703 5704 5705 5706 5706 5707 5708 5708 5708 5708 5708 5708 5708 5708 5708 5708 5708 5708 5708 5708 5708 5709 5709 5710 5710 5711 5711 5711 5712 5712 5712 5712 5712 5712 5713 5713 5713 5714 5714 5715 5715 5716 5716 5716 5716 5716 5716
5674 5675 5676 5677 5678 5679 5679 5680 5681 5683 5684 5684 5685 5686 5686 5686 5687 5687 5688 5689 5689 5690 5690 5691 5691 5691 5692 5693 5694 5695 5696 5696 5696 5696 5696 5697 5698 5699 5699 5700 5701 5701 5702 5702 5703 5703 5704 5704 5704 5704 5705 5705 5705 5705 5704 5704 5704 5704 5704 5704 5704 5705 5705 5705 5706 5706 5707 5707 5707 5707 5707 5707 5708 5708 5708 5708 5708 5709 5709 5710 5710 5710 5710 5711 5711
5668 5669 5670 5671 5672 5673 5674 5675 5676 5677 5678 5679 5680 5680 5681 5681 5681 5682 5683 5684 5685 5685 5686 5686 5687 5687 5688 5688 5689 5689 5690 5691 5691 5691 5692 5693 5694 5694 5695 5696 5696 5697 5696 5695 5696 5698 5698 5699 5699 5700 5700 5701 5701 5701 5701 5701 5701 5701 5700 5700 5700 5700 5700 5700 5701 5701 5701 5701 5702 5702 5702 5702 5703 5703 5702 5703 5703 5703 5703 5703 5704 5704 5704 5705 5705
5662 5663 5664 5665 5666 5667 5668 5669 5670 5671 5672 5673 5674 5674 5675 5675 5676 5677 5678 5679 5679 5680 5680 5681 5681 5682 5683 5683 5684 5684 5685 5686 5686 5687 5687 5688 5689 5689 5690 5691 5691 5691 5690 5689 5690 5692 5692 5694 5695 5695 5695 5696 5697 5697 5696 5696 5696 5696 5696 5696 5695 5695 5695 5695 5696 5696 5696 5696 5697 5697 5697 5697 5697 5697 5697 5697 5697 5698 5698 5698 5698 5698 5698 5699 5699
5656 5656 5657 5659 5660 5660 5661 5662 5663 5664 5665 5666 5667 5668 5668 5669 5670 5671 5672 5673 5673 5674 5674 5674 5675 5676 5676 5677 5678 5678 5679 5680 5681 5682 5682 5682 5683 5684 5684 5685 5685 5685 5684 5684 5685 5686 5686 5687 5689 5689 5690 5691 5691 5691 5691 5691 5691 5691 5691 5691 5691 5690 5690 5690 5691 5691 5691 5691 5692 5692 5692 5692 5692 5692 5692 5692 5692 5692 5692 5693 5693 5693 5693 5693 5693
5649 5650 5651 5652 5652 5653 5654 5655 5656 5657 5658 5659 5660 5660 5661 5662 5663 5664 5665 5666 5667 5667 5667 5668 5668 5669 5670 5671 5672 5672 5673 5673 5675 5676 5676 5677 5677 5678 5679 5679 5680 5680 5679 5679 5680 5681 5680 5681 5682 5683 5684 5684 5684 5684 5684 5685 5685 5685 5685 5685 5685 5685 5685 5685 5685 5686 5686 5686 5686 5686 5687 5686 5686 5687 5687 5687 5687 5687 5687 5687 5688 5688 5687 5687 5687
5642 5643 5644 5644 5645 5646 5647 5647 5648 5649 5650 5651 5652 5653 5654 5655 5656 5657 5658 5659 5660 5660 5660 5661 5661 5662 5663 5664 5665 5665 5666 5666 5667 5668 5669 5670 5671 5672 5673 5673 5674 5674 5674 5674 5675 5675 5674 5674 5676 5677 5678 5677 5677 5677 5678 5679 5679 5679 5679 5679 5679 5679 5679 5679 5679 5680 5680 5680 5680 5681 5681 5681 5681 5681 5681 5682 5682 5682 5682 5682 5682 5682 5682 5682 5682
5635 5636 5636 5637 5638 5639 5639 5640 5641 5642 5643 5644 5644 5645 5646 5647 5648 5650 5650 5651 5652 5653 5653 5654 5654 5655 5656 5657 5658 5658 5659 5660 5660 5661 5661 5662 5664 5665 5666 5667 5667 5667 5667 5668 5669 5669 5668 5668 5669 5670 5670 5671 5671 5672 5672 5673 5673 5673 5673 5673 5673 5674 5674 5674 5674 5674 5674 5674 5675 5675 5675 5675 5675 5675 5675 5675 5675 5676 5676 5676 5676 5676 5676 5676 5675
5627 5628 5629 5630 5631 5631 5632 5633 5633 5634 5635 5636 5636 5637 5638 5640 5641 5642 5643 5644 5644 5645 5646 5646 5647 5648 5648 5649 5650 5651 5652 5653 5653 5654 5655 5656 5657 5658 5659 5659 5660 5660 5660 5661 5662 5662 5662 5662 5663 5664 5664 5664 5664 5665 5665 5666 5666 5666 5666 5667 5667 5668 5668 5667 5667 5667 5668 5668 5668 5668 5668 5668 5668 5668 5668 5668 5669 5669 5670 5670 5670 5670 5670 5670 5669
5620 5621 5622 5623 5623 5624 5625 5625 5626 5627 5627 5628 5628 5629 5631 5632 5633 5634 5635 5636 5636 5637 5638 5638 5639 5640 5640 5641 5642 5643 5644 5645 5646 5647 5648 5649 5650 5651 5652 5652 5652 5652 5653 5654 5655 5655 5655 5655 5656 5657 5658 5658 5657 5657 5657 5658 5658 5659 5660 5660 5661 5661 5661 5661 5661 5661 5661 5661 5661 5661 5661 5661 5661 5661 5661 5661 5662 5662 5663 5663 5664 5663 5663 5663 5663
5612 5614 5615 5615 5616 5617 5618 5618 5618 5619 5619 5620 5620 5621 5623 5624 5625 5626 5627 5627 5628 5629 5629 5629 5630 5631 5632 5633 5634 5636 5637 5638 5638 5639 5640 5642 5643 5644 5644 5644 5645 5645 5646 5647 5648 5648 5648 5648 5648 5649 5650 5651 5651 5651 5650 5650 5651 5652 5653 5653 5654 5654 5654 5654 5653 5653 5653 5653 5654 5654 5654 5654 5654 5654 5654 5653 5654 5655 5655 5656 5657 5657 5656 5656 5656
5605 5606 5607 5608 5609 5610 5610 5611 5611 5611 5612 5612 5612 5614 5615 5617 5617 5618 5618 5619 5620 5621 5621 5621 5621 5622 5623 5624 5626 5628 5629 5630 5631 5632 5633 5634 5635 5636 5636 5637 5637 5638 5639 5640 5640 5640 5640 5640 5641 5642 5643 5644 5644 5644 5644 5644 5644 5645 5645 5646 5647 5646 5646 5646 5646 5645 5645 5646 5646 5646 5647 5647 5648 5648 5647 5646 5646 5647 5648 5648 5649 5649 5649 5648 5648
5596 5598 5599 5600 5601 5601 5602 5602 5603 5603 5603 5604 5605 5606 5608 5609 5610 5610 5610 5611 5612 5613 5612 5612 5613 5614 5615 5616 5617 5619 5620 5621 5622 5623 5625 5626 5626 5627 5628 5629 5629 5630 5631 5632 5632 5632 5632 5633 5634 5635 5636 5637 5636 5636 5636 5636 5637 5638 5638 5639 5639 5639 5638 5638 5637 5637 5638 5638 5638 5638 5639 5639 5640 5640 5640 5639 5639 5639 5640 5640 5641 5641 5641 5641 5641
5589 5590 5590 5591 5591 5592 5593 5594 5595 5595 5595 5596 5597 5598 5600 5601 5602 5601 5602 5603 5604 5603 5603 5604 5605 5606 5607 5608 5609 5610 5612 5612 5613 5615 5616 5617 5618 5619 5620 5620 5622 5623 5623 5624 5624 5624 5624 5625 5627 5628 5628 5628 5629 5629 5629 5629 5629 5630 5630 5631 5631 5631 5631 5630 5630 5630 5630 5630 5630 5630 5630 5631 5632 5632 5632 5632 5631 5631 5632 5632 5632 5633 5633 5633 5632
5581 5581 5582 5582 5583 5583 5584 5585 5586 5587 5587 5588 5589 5591 5592 5593 5593 5593 5594 5595 5595 5594 5594 5596 5598 5598 5599 5600 5601 5602 5603 5604 5605 5606 5607 5608 5610 5611 5611 5612 5614 5615 5616 5617 5617 5616 5616 5617 5619 5620 5620 5621 5621 5622 5622 5622 5622 5622 5622 5623 5623 5623 5623 5623 5623 5623 5623 5623 5623 5623 5623 5623 5623 5623 5623 5623 5623 5623 5623 5624 5624 5624 5625 5624 5623
5574 5574 5574 5574 5575 5575 5576 5577 5578 5579 5579 5580 5581 5582 5584 5585 5585 5586 5587 5586 5585 5585 5587 5588 5590 5590 5591 5591 5592 5593 5595 5596 5597 5598 5599 5600 5601 5602 5603 5605 5606 5608 5609 5610 5610 5609 5609 5610 5611 5612 5613 5614 5614 5614 5614 5614 5614 5614 5614 5615 5616 5616 5616 5616 5617 5616 5616 5616 5615 5615 5615 5615 5615 5615 5615 5615 5615 5615 5615 5615 5615 5615 5615 5614 5613
5567 5566 5566 5567 5567 5568 5569 5570 5571 5571 5572 5572 5573 5574 5575 5576 5577 5578 5578 5577 5576 5577 5579 5580 5581 5582 5582 5583 5584 5585 5586 5587 5589 5590 5591 5592 5593 5594 5595 5597 5599 5600 5601 5602 5602 5603 5603 5604 5604 5605 5606 5606 5606 5606 5606 5606 5606 5607 5607 5608 5609 5609 5609 5610 5610 5609 5609 5609 5608 5608 5608 5608 5607 5607 5607 5607 5607 5607 5606 5607 5607 5606 5605 5604 5602
5560 5560 5559 5559 5560 5561 5562 5563 5563 5564 5564 5565 5565 5566 5567 5568 5569 5570 5569 5568 5568 5570 5571 5572 5573 5574 5574 5574 5575 5576 5578 5579 5580 5582 5583 5584 5585 5586 5588 5589 5591 5592 5593 5594 5595 5596 5596 5597 5598 5598 5599 5600 5599 5599 5599 5600 5600 5601 5602 5602 5603 5603 5602 5603 5603 5603 5602 5601 5601 5601 5600 5600 5599 5599 5599 5599 5599 5598 5598 5598 5597 5596 5595 5594 5591
5553 5553 5552 5552 5553 5554 5555 5555 5556 5556 5556 5556 5557 5558 5558 5559 5561 5562 5561 5561 5561 5562 5562 5564 5565 5565 5565 5565 5566 5567 5569 5571 5572 5573 5575 5576 5577 5579 5581 5582 5583 5584 5586 5587 5588 5589 5589 5590 5591 5592 5593 5594 5594 5594 5594 5595 5595 5595 5596 5596 5596 5596 5596 5596 5596 5596 5595 5594 5593 5592 5592 5592 5591 5591 5591 5590 5590 5589 5589 5588 5587 5586 5584 5583 5581
5546 5545 5545 5545 5546 5547 5548 5548 5548 5548 5548 5548 5548 5549 5549 5551 5552 5552 5552 5553 5553 5553 5553 5555 5555 5556 5556 5556 5557 5559 5560 5562 5564 5565 5567 5568 5569 5571 5573 5574 5575 5577 5579 5580 5581 5582 5583 5584 5585 5586 5587 5588 5589 5589 5589 5589 5589 5589 5589 5589 5589 5589 5589 5589 5589 5589 5587 5587 5586 5585 5584 5584 5583 5583 5582 5582 5581 5580 5579 5578 5576 5575 5573 5572 5571
5537 5537 5537 5537 5538 5539 5540 5540 5540 5540 5540 5540 5540 5540 5541 5542 5543 5543 5544 5544 5544 5543 5544 5545 5545 5546 5547 5547 5548 5550 5551 5553 5555 5557 5558 5560 5561 5563 5565 5567 5568 5571 5573 5574 5575 5576 5577 5579 5580 5581 5582 5582 5583 5584 5584 5584 5583 5583 5582 5582 5582 5582 5582 5582 5581 5581 5580 5579 5579 5578 5577 5576 5575 5574 5573 5573 5572 5570 5568 5567 5565 5564 5562 5561 5559
5529 5529 5528 5528 5529 5530 5531 5531 5532 5532 5531 5531 5531 5531 5532 5533 5533 5534 5534 5535 5534 5534 5534 5535 5535 5536 5537 5537 5539 5540 5542 5544 5546 5548 5550 5552 5554 5556 5559 5560 5562 5564 5567 5568 5569 5570 5572 5574 5575 5576 5576 5577 5578 5578 5578 5578 5578 5577 5576 5576 5575 5575 5574 5573 5573 5572 5572 5571 5570 5569 5568 5567 5566 5565 5564 5563 5562 5560 5558 5557 5555 5553 5551 5550 5548
5521 5521 5520 5520 5520 5521 5522 5522 5523 5523 5522 5521 5522 5522 5523 5523 5524 5524 5524 5524 5524 5524 5524 5526 5526 5527 5528 5529 5530 5532 5534 5536 5538 5540 5543 5545 5548 5550 5553 5555 5556 5558 5561 5563 5564 5566 5568 5569 5570 5571 5571 5572 5572 5572 5572 5572 5572 5571 5571 5570 5569 5568 5567 5566 5565 5564 5564 5562 5561 5560 5559 5558 5557 5555 5554 5552 5550 5549 5547 5546 5544 5541 5539 5538 5537
5512 5512 5511 5511 5512 5512 5513 5513 5514 5513 5512 5511 5513 5513 5513 5513 5514 5514 5514 5513 5514 5515 5516 5518 5519 5520 5522 5523 5525 5526 5528 5530 5532 5535 5538 5541 5544 5546 5548 5550 5552 5554 5557 5559 5561 5563 5565 5565 5566 5567 5567 5567 5568 5567 5567 5567 5566 5565 5564 5563 5562 5561 5560 5559 5558 5556 5555 5553 5552 5551 5549 5548 5546 5545 5543 5541 5540 5538 5536 5534 5532 5530 5528 5527 5525
5503 5503 5502 5502 5503 5503 5504 5504 5505 5504 5503 5503 5503 5503 5503 5504 5505 5505 5504 5505 5507 5508 5510 5512 5514 5515 5517 5519 5520 5522 5523 5526 5529 5531 5534 5537 5540 5542 5544 5546 5549 5552 5555 5556 5558 5560 5561 5562 5563 5563 5563 5563 5563 5562 5562 5561 5560 5559 5558 5557 5556 5555 5553 5552 5550 5548 5547 5545 5544 5542 5540 5538 5537 5535 5534 5532 5530 5528 5526 5524 5521 5519 5517 5515 5514
5494 5493 5493 5494 5494 5494 5495 5496 5496 5496 5495 5495 5495 5495 5496 5497 5497 5497 5498 5499 5501 5502 5504 5507 5509 5511 5513 5515 5516 5518 5521 5523 5526 5528 5531 5534 5536 5538 5540 5543 5546 5549 5551 5553 5555 5557 5558 5559 5559 5559 5559 5558 5557 5557 5556 5555 5554 5552 5551 5550 5549 5548 5546 5544 5543 5541 5539 5537 5536 5534 5531 5529 5528 5526 5525 5523 5520 5518 5516 5514 5511 5509 5507 5505 5504
5485 5485 5485 5486 5486 5487 5488 5488 5489 5489 5489 5489 5489 5490 5492 5492 5492 5492 5493 5495 5496 5498 5500 5503 5505 5507 5509 5511 5513 5516 5518 5521 5523 5525 5528 5530 5533 5535 5537 5540 5543 5546 5548 5550 5551 5553 5554 5555 5555 5554 5554 5554 5553 5552 5551 5550 5548 5547 5546 5544 5543 5542 5540 5537 5535 5533 5531 5529 5527 5525 5523 5521 5519 5517 5516 5513 5511 5509 5506 5504 5502 5500 5498 5497 5495